Regional Weather Roundup
Issued by NWS

Home | Current Version | Previous Version | Graphics & Text | Print | Product List | Glossary On
Versions: 1 2 3 4 5 6 7 8 9 10 11 12 13 14 15 16 17 18 19 20 21 22 23 24 25 26 27 28 29 30 31 32 33 34 35 36 37 38 39 40 41 42 43 44 45 46 47 48 49 50
000
ASUS45 KCYS 210710
RWRWY

WYOMING REGIONAL WEATHER ROUNDUP
NATIONAL WEATHER SERVICE CHEYENNE WY
100 AM MDT MON AUG 21 2017

NOTE:  "FAIR" INDICATES FEW OR NO CLOUDS BELOW 12,000 FEET
WITH NO SIGNIFICANT WEATHER AND/OR OBSTRUCTIONS TO VISIBILITY.

WYZ001-210800-
YELLOWSTONE NATIONAL PARK

CITY           SKY/WX    TMP DP  RH WIND       PRES   REMARKS
LK YELLOWSTONE   N/A     42  35  76 CALM      30.32R
W YELLOWSTONE  NOT AVBL

$$
WYZ002>013-054>058-071-098>099-210800-
NORTHERN WYOMING

CITY           SKY/WX    TMP DP  RH WIND       PRES   REMARKS
JACKSON        FAIR      44  27  51 NE5       30.23R
CODY           FAIR      63  28  26 W3        30.15R
GREYBULL       FAIR      70  35  27 W14       30.02R
WORLAND        FAIR      63  37  38 SW6       30.06R
SHERIDAN       FAIR      59  42  53 S3        30.05R
BUFFALO        FAIR      64  34  32 NW5       30.12R
GILLETTE       FAIR      59  43  55 CALM      30.04R
HULETT         FAIR      61  50  67 CALM      30.04R
NEWCASTLE      FAIR      70  52  52 SE17G25   30.02S

$$
WYZ014>020-022>026-101>103-210800-
CENTRAL WYOMING

CITY           SKY/WX    TMP DP  RH WIND       PRES   REMARKS
BIG PINEY      FAIR      47  30  51 E6        30.27R
PINEDALE       FAIR      43  32  65 W9        30.28R
DUBOIS         FAIR      50  23  34 NW10      30.26R
LANDER           N/A    N/A N/A N/A MISG      30.14R
RIVERTON       FAIR      65  35  33 N6        30.14R
CASPER         FAIR      62  39  42 CALM      30.13R
DOUGLAS        FAIR      60  44  55 SE6       30.06R

$$
WYZ021-027>030-104>119-210800-
SOUTHERN WYOMING

CITY           SKY/WX    TMP DP  RH WIND       PRES   REMARKS
EVANSTON       FAIR      61  34  36 SE8       30.27R
KEMMERER         N/A     54  32  43 N10       30.28S
FORT BRIDGER   FAIR      65  32  29 W7        30.28S
ROCK SPRINGS   FAIR      67  34  29 CALM      30.24R
RAWLINS        MOCLDY    62  35  36 S5        30.22S
SARATOGA       FAIR      55  37  50 S12       30.26S
LARAMIE        FAIR      52  37  56 CALM      30.25S
CHEYENNE       FAIR      60  48  64 W8        30.17F
TORRINGTON     FAIR      66  63  90 SE5       30.04R
PINE BLUFFS    FAIR      63  61  94 W5        30.12S

$$



USA.gov is the U.S. government's official web portal to all federal, state and local government web resources and services.